"Pseudo-MPEC" for p0005Q

Created 2025 May 20 2:31:08 UT using Find_Orb

Click here for an explanation of pseudo-MPECs

 
 Astrometry: 
     p0005Q * C2025 05 04.32311914 27 35.180+13 03 17.35   ~54Cl 22.12wXNEOCPF52
     p0005Q   C2025 05 04.33391814 27 34.550+13 03 42.08   ~54Cl 22.16wXNEOCPF52
     p0005Q   C2025 05 04.34469914 27 33.893+13 04 06.74   ~54Cl 22.09wXNEOCPF52
     p0005Q   C2025 05 04.35551214 27 33.232+13 04 31.15   ~54Cl 22.26wXNEOCPF52
     p0005Q  3C2025 05 05.30233214 26 47.480+13 39 03.17   ~5582 22.29GVNEOCPT14
     p0005Q  3C2025 05 05.30330914 26 47.432+13 39 05.23   ~5582 22.27GVNEOCPT14
     p0005Q  3C2025 05 05.30931514 26 47.083+13 39 18.16   ~5582 22.24GVNEOCPT14
     p0005Q  3C2025 05 05.31032114 26 47.027+13 39 20.37   ~558l 22.15GVNEOCPT14
     p0005Q  3C2025 05 05.31131214 26 46.977+13 39 22.46   ~558l 22.16GVNEOCPT14

Station data:
(F52) Pan-STARRS 2, Haleakala  (N20.707382 W156.255910)  US/Hawaii.
   Observers J. Bulger, T. Dukes, T. Lowe, A. Schultz, M. Willman. Measurers
   K. Chambers, S. Chastel, T. de Boer, L. Denneau, J. Fairlamb, H.
   Flewelling, M. Huber, C.-C. Lin, E. Magnier, Y. Ramanjooloo, R. Wainscoat,
   R. Weryk. 1.8-m Ritchey-Chrétien + CCD.
(T14) Mauna Kea-UH/Tholen NEO Follow-Up (CFHT)  (N19.825252 W155.468876)
   US/Hawaii.  Observer R. Weryk. 3.6-m Canada-France-Hawaii Telescope.

Orbital elements:  p0005Q
   Perihelion 2025 Jan 16.17371 +/- 7.54 TT =  4:10:08 (JD 2460691.67371)
Epoch 2025 May  5.0 TT = JDT 2460800.5   Earth MOID: 0.1506      AutoNEOCP
M  71.94728123 +/- 8                (J2000 ecliptic)
n   0.66112042 +/- 0.0324           Peri.  278.00596 +/- 0.9
a   1.30501548 +/- 0.0426           Node   203.89321 +/- 1.3
e   0.2461601 +/- 0.0601            Incl.   19.72588 +/- 1.8
P   1.491/544.520d         H 23.23  G  0.15   U 10.4
q 0.98377264 +/- 0.0504    Q 1.62625832 +/- 0.129
From 9 observations 2025 May 4-5 (23.7 hr); mean residual 0".07
Residuals in arcseconds: 
250504 F52  .12-  .09-    250504 F52  .05-  .04-    250505 T14  .05-  .01-    
250504 F52  .13+  .01+    250505 T14  .04-  .00     250505 T14  .03-  .04+    
250504 F52  .03+  .12+    250505 T14  .07+  .04-    250505 T14  .06+  .01+    

Ephemerides (geocentric):
Date (UTC) HH   RA             Dec           delta  r     elong  mag " sig PA
---- --------  ------------   ------------  ------ ------ -----  --- --------
2025 05 20 03  14 19 31.412   +18 56 14.07  .41301 1.3384 135.6 23.3 88.2 161
2025 05 20 04  14 19 30.947   +18 56 39.33  .41333 1.3386 135.6 23.3 88.4 161
2025 05 20 05  14 19 30.485   +18 57 04.46  .41365 1.3387 135.5 23.3 88.5 161
2025 05 20 06  14 19 30.027   +18 57 29.47  .41397 1.3389 135.5 23.3 88.7 161
2025 05 20 07  14 19 29.574   +18 57 54.36  .41429 1.3390 135.4 23.3 88.8 161
2025 05 20 08  14 19 29.125   +18 58 19.12  .41461 1.3392 135.4 23.3 88.9 161
2025 05 20 09  14 19 28.680   +18 58 43.75  .41493 1.3393 135.4 23.3 89.1 161
2025 05 20 10  14 19 28.238   +18 59 08.26  .41526 1.3395 135.3 23.3 89.2 161
2025 05 20 11  14 19 27.802   +18 59 32.65  .41558 1.3396 135.3 23.3 89.3 161
2025 05 20 12  14 19 27.369   +18 59 56.92  .41590 1.3398 135.3 23.3 89.5 161
2025 05 20 13  14 19 26.940   +19 00 21.06  .41622 1.3399 135.2 23.3 89.6 161
2025 05 20 14  14 19 26.515   +19 00 45.07  .41654 1.3401 135.2 23.3 89.7 161
2025 05 20 15  14 19 26.095   +19 01 08.97  .41686 1.3402 135.2 23.3 89.9 161
2025 05 20 16  14 19 25.678   +19 01 32.74  .41719 1.3404 135.1 23.3 90.0 161
2025 05 20 17  14 19 25.266   +19 01 56.39  .41751 1.3405 135.1 23.3 90.1 161
2025 05 20 18  14 19 24.858   +19 02 19.92  .41783 1.3407 135.1 23.3 90.2 161
2025 05 20 19  14 19 24.453   +19 02 43.32  .41815 1.3408 135.0 23.3 90.4 161
2025 05 20 20  14 19 24.053   +19 03 06.61  .41848 1.3410 135.0 23.3 90.5 161
2025 05 20 21  14 19 23.657   +19 03 29.77  .41880 1.3411 135.0 23.3 90.6 161
2025 05 20 22  14 19 23.265   +19 03 52.81  .41912 1.3413 134.9 23.3 90.7 161
2025 05 20 23  14 19 22.878   +19 04 15.73  .41945 1.3414 134.9 23.3 90.8 161
2025 05 21 00  14 19 22.494   +19 04 38.53  .41977 1.3416 134.9 23.3 90.9 161
2025 05 21 01  14 19 22.114   +19 05 01.21  .42009 1.3417 134.8 23.4 91.0 161
2025 05 21 02  14 19 21.739   +19 05 23.77  .42042 1.3419 134.8 23.4 91.2 161
2025 05 21 03  14 19 21.367   +19 05 46.21  .42074 1.3420 134.8 23.4 91.3 161
2025 05 21 04  14 19 21.000   +19 06 08.52  .42106 1.3422 134.7 23.4 91.4 161
2025 05 21 05  14 19 20.637   +19 06 30.72  .42139 1.3423 134.7 23.4 91.5 161
2025 05 21 06  14 19 20.277   +19 06 52.80  .42171 1.3425 134.7 23.4 91.6 161
2025 05 21 07  14 19 19.922   +19 07 14.76  .42204 1.3426 134.6 23.4 91.7 161
2025 05 21 08  14 19 19.571   +19 07 36.60  .42236 1.3428 134.6 23.4 91.8 161
2025 05 21 09  14 19 19.224   +19 07 58.32  .42268 1.3429 134.6 23.4 91.9 161
2025 05 21 10  14 19 18.881   +19 08 19.93  .42301 1.3431 134.5 23.4 92.0 161
2025 05 21 11  14 19 18.543   +19 08 41.41  .42333 1.3432 134.5 23.4 92.1 161
2025 05 21 12  14 19 18.208   +19 09 02.78  .42366 1.3434 134.5 23.4 92.2 161
2025 05 21 13  14 19 17.877   +19 09 24.03  .42398 1.3435 134.4 23.4 92.2 161
2025 05 21 14  14 19 17.551   +19 09 45.16  .42431 1.3437 134.4 23.4 92.3 161
2025 05 21 15  14 19 17.228   +19 10 06.17  .42463 1.3438 134.4 23.4 92.4 162
2025 05 21 16  14 19 16.910   +19 10 27.07  .42496 1.3440 134.3 23.4 92.5 162
2025 05 21 17  14 19 16.595   +19 10 47.85  .42528 1.3441 134.3 23.4 92.6 162
2025 05 21 18  14 19 16.285   +19 11 08.51  .42561 1.3443 134.3 23.4 92.7 162
2025 05 21 19  14 19 15.979   +19 11 29.06  .42593 1.3444 134.2 23.4 92.8 162
2025 05 21 20  14 19 15.676   +19 11 49.49  .42626 1.3446 134.2 23.4 92.8 162
2025 05 21 21  14 19 15.378   +19 12 09.80  .42659 1.3447 134.2 23.4 92.9 162
2025 05 21 22  14 19 15.084   +19 12 30.00  .42691 1.3449 134.1 23.4 93.0 162
2025 05 21 23  14 19 14.794   +19 12 50.08  .42724 1.3450 134.1 23.4 93.1 162
2025 05 22 00  14 19 14.508   +19 13 10.04  .42756 1.3452 134.1 23.4 93.1 162
2025 05 22 01  14 19 14.226   +19 13 29.89  .42789 1.3453 134.0 23.4 93.2 162
2025 05 22 02  14 19 13.949   +19 13 49.63  .42822 1.3455 134.0 23.4 93.3 162